Fargo, ND

8:31 PM CDT on October 14, 2019 (GMT -0500)
Hector International

Weather History for KFAR - August, 2019

Change the Weather History Date:

Tuesday, August 13, 2019

  Actual Average Record
Temperature  
Mean Temperature 64 °F 70 °F  
Max Temperature 68 °F 82 °F 102 °F (1984)
Min Temperature 60 °F 58 °F 33 °F (1964)
Degree Days  
Heating Degree Days 1 1  
Month to date heating degree days 8 9  
Since 1 June heating degree days 72 98  
Since 1 July heating degree days 14 25  
Cooling Degree Days 0 6  
Month to date cooling degree days 66 84  
Year to date cooling degree days 444 424  
Since 1 June cooling degree days 434 393  
Growing Degree Days 14 (Base 50)    
Moisture  
Dew Point 61 °F    
Average Humidity 88    
Maximum Humidity 100    
Minimum Humidity 76    
Precipitation  
Precipitation T in 0.08 in 1.36 in (1988)
Month to date precipitation 2.14 0.94  
Year to date precipitation 18.48 14.41  
Snow  
Snow 0.00 in 0.00 in 0.00 in ()
Month to date snowfall 0.0 0.0  
Since 1 June snowfall 0.0 0.0  
Since 1 July snowfall 0.0 0.0  
Snow Depth 0.00 in    
Sea Level Pressure  
Sea Level Pressure 29.94 in    
Wind  
Wind Speed 6 mph (NNW)    
Max Wind Speed 15 mph    
Max Gust Speed 21 mph    
Visibility 8 miles    
Events Rain    
T = Trace of Precipitation, MM = Missing Value Source: NWS Daily Summary

Daily Weather History Graph

Daily Weather History Graph

Search for Another Location

Airport or City:

Astronomy

Aug. 13, 2019 Rise Set
Actual Time 6:21 AM CDT 8:41 PM CDT
Civil Twilight 5:48 AM CDT 9:15 PM CDT
Nautical Twilight 5:06 AM CDT 9:56 PM CDT
Astronomical Twilight 4:18 AM CDT 10:44 PM CDT
Moon 8:04 PM CDT (8/13) 4:16 AM CDT (8/13)
Length of Visible Light 15h 26m
Length of Day
14h 19m
Waxing Gibbous, 97% of the Moon is Illuminated
Aug 13
Waxing Gibbous
Aug 15
Full
Aug 23
Last Quarter
Aug 30
New
Sep 5
First Quarter

Hourly Weather History & Observations

Time (CDT) Temp. Dew Point Humidity Pressure Visibility Wind Dir Wind Speed Gust Speed Precip Events Conditions
12:53 AM 62.1 °F 61.0 °F 96% 29.90 in 10.0 mi NNW 6.9 mph - N/A   Overcast
1:53 AM 62.1 °F 61.0 °F 96% 29.91 in 10.0 mi Calm Calm - N/A   Overcast
2:53 AM 61.0 °F 60.1 °F 97% 29.90 in 9.0 mi WNW 4.6 mph - N/A   Overcast
3:53 AM 61.0 °F 60.1 °F 97% 29.87 in 8.0 mi Calm Calm - N/A   Overcast
4:53 AM 61.0 °F 61.0 °F 100% 29.88 in 2.5 mi NNE 3.5 mph - N/A   Overcast
5:03 AM 61.0 °F 61.0 °F 100% 29.88 in 1.5 mi Calm Calm - N/A   Overcast
5:48 AM 60.8 °F 60.8 °F 100% 29.89 in 3.0 mi Calm Calm - N/A   Overcast
5:53 AM 61.0 °F 60.1 °F 97% 29.90 in 3.0 mi Calm Calm - N/A   Overcast
6:37 AM 61.0 °F 61.0 °F 100% 29.90 in 5.0 mi SSW 4.6 mph - N/A   Overcast
6:53 AM 62.1 °F 61.0 °F 96% 29.90 in 6.0 mi Calm Calm - N/A   Overcast
7:53 AM 61.0 °F 61.0 °F 100% 29.91 in 3.0 mi Calm Calm - N/A   Overcast
8:53 AM 63.0 °F 61.0 °F 93% 29.89 in 10.0 mi SE 4.6 mph - N/A   Overcast
9:09 AM 63.0 °F 62.1 °F 97% 29.89 in 10.0 mi South 3.5 mph - N/A   Overcast
9:53 AM 63.0 °F 62.1 °F 97% 29.90 in 10.0 mi SSW 3.5 mph - N/A   Overcast
10:53 AM 64.9 °F 61.0 °F 87% 29.91 in 10.0 mi West 3.5 mph - N/A   Overcast
11:37 AM 66.0 °F 61.0 °F 84% 29.91 in 10.0 mi West 5.8 mph - 0.00 in Rain Light Rain
11:53 AM 66.0 °F 61.0 °F 84% 29.91 in 10.0 mi WNW 4.6 mph - 0.00 in Rain Light Rain
12:53 PM 66.0 °F 61.0 °F 84% 29.93 in 10.0 mi NNW 12.7 mph - 0.00 in   Overcast
1:01 PM 64.9 °F 62.1 °F 90% 29.93 in 10.0 mi NNW 12.7 mph - N/A   Overcast
1:11 PM 64.9 °F 62.1 °F 90% 29.93 in 10.0 mi NNW 12.7 mph - N/A   Overcast
1:22 PM 64.0 °F 61.0 °F 90% 29.93 in 10.0 mi NNW 12.7 mph - N/A   Overcast
1:51 PM 64.4 °F 60.8 °F 88% 29.94 in 8.0 mi NNW 10.4 mph - N/A   Overcast
1:53 PM 64.0 °F 61.0 °F 90% 29.94 in 8.0 mi NNW 10.4 mph - N/A   Overcast
2:25 PM 64.9 °F 61.0 °F 87% 29.94 in 10.0 mi NNW 12.7 mph - 0.00 in   Overcast
2:53 PM 68.0 °F 61.0 °F 78% 29.94 in 10.0 mi NNW 13.8 mph - 0.00 in   Overcast
3:53 PM 66.0 °F 61.0 °F 84% 29.96 in 10.0 mi NW 9.2 mph - N/A   Overcast
4:53 PM 64.9 °F 63.0 °F 93% 29.96 in 8.0 mi NNE 10.4 mph - 0.00 in Rain Light Rain
5:07 PM 64.9 °F 63.0 °F 93% 29.96 in 4.0 mi North 8.1 mph - 0.00 in Rain Light Rain
5:16 PM 64.9 °F 63.0 °F 93% 29.96 in 10.0 mi North 10.4 mph - 0.00 in   Overcast
5:28 PM 64.9 °F 63.0 °F 93% 29.97 in 10.0 mi North 11.5 mph - 0.00 in   Overcast
5:38 PM 64.9 °F 63.0 °F 93% 29.97 in 10.0 mi North 10.4 mph - 0.00 in   Overcast
5:53 PM 66.0 °F 63.0 °F 90% 29.98 in 10.0 mi North 9.2 mph - 0.00 in   Overcast
6:12 PM 64.9 °F 62.1 °F 90% 29.98 in 10.0 mi North 11.5 mph - N/A   Overcast
6:53 PM 64.0 °F 61.0 °F 90% 30.00 in 5.0 mi North 10.4 mph - 0.00 in Rain Light Rain
7:53 PM 63.0 °F 60.1 °F 90% 30.01 in 10.0 mi North 12.7 mph 19.6 mph 0.00 in   Overcast
8:39 PM 62.1 °F 61.0 °F 96% 30.02 in 10.0 mi North 11.5 mph - N/A   Overcast
8:53 PM 62.1 °F 61.0 °F 96% 30.03 in 7.0 mi North 10.4 mph - 0.00 in Rain Light Rain
9:53 PM 62.1 °F 61.0 °F 96% 30.05 in 10.0 mi North 6.9 mph - 0.00 in   Overcast
10:53 PM 62.1 °F 60.1 °F 93% 30.06 in 10.0 mi NNW 6.9 mph - N/A   Overcast
11:53 PM 63.0 °F 61.0 °F 93% 30.06 in 10.0 mi NNW 5.8 mph - 0.00 in   Overcast